timestamp,wind_dir_avg,wind_spd_avg,wind_spd_max_dir,wind_spd_gust,battery_voltage,lat,long
2022-11-07 00:04:00+00:00,211.0,8.28,226.0,9.47,12.25,47.59359,-54.27349
2022-11-07 00:14:00+00:00,214.0,6.61,213.0,7.63,12.25,47.59359,-54.27349
2022-11-07 00:24:00+00:00,213.0,6.77,216.0,7.9,12.25,47.59359,-54.27349
2022-11-07 00:34:00+00:00,208.0,6.27,214.0,7.37,12.25,47.59359,-54.27349
2022-11-07 00:44:00+00:00,215.0,6.86,217.0,7.68,12.25,47.59359,-54.27349
2022-11-07 00:54:00+00:00,214.0,6.71,212.0,7.91,12.25,47.59359,-54.27349
2022-11-07 01:04:00+00:00,214.0,6.53,211.0,7.91,12.25,47.59359,-54.27349
2022-11-07 01:14:00+00:00,215.0,7.68,214.0,8.91,12.17,47.59359,-54.27349
2022-11-07 01:24:00+00:00,218.0,6.93,236.0,10.02,12.17,47.59359,-54.27349
2022-11-07 01:34:00+00:00,220.0,8.23,232.0,10.73,12.17,47.59359,-54.27349
2022-11-07 01:44:00+00:00,222.0,9.07,225.0,11.09,12.17,47.59359,-54.27349
2022-11-07 01:54:00+00:00,220.0,8.56,234.0,9.81,12.17,47.59359,-54.27349
2022-11-07 02:04:00+00:00,219.0,9.55,225.0,11.18,12.17,47.59359,-54.27349
2022-11-07 02:14:00+00:00,217.0,8.64,224.0,10.98,12.17,47.59359,-54.27349
2022-11-07 02:24:00+00:00,218.0,9.73,221.0,11.49,12.17,47.59359,-54.27349
2022-11-07 02:34:00+00:00,213.0,9.59,222.0,11.75,12.17,47.59359,-54.27349
2022-11-07 02:44:00+00:00,215.0,9.01,220.0,10.5,12.17,47.59359,-54.27349
2022-11-07 02:54:00+00:00,218.0,7.47,220.0,9.65,12.17,47.59359,-54.27349
2022-11-07 03:04:00+00:00,219.0,8.32,222.0,9.58,12.17,47.59359,-54.27349
2022-11-07 03:14:00+00:00,219.0,7.51,232.0,8.47,12.17,47.59359,-54.27349
2022-11-07 03:24:00+00:00,219.0,7.87,220.0,9.22,12.17,47.59359,-54.27349
2022-11-07 03:34:00+00:00,217.0,9.18,221.0,11.3,12.17,47.59359,-54.27349
2022-11-07 03:44:00+00:00,216.0,8.04,217.0,9.03,12.17,47.59359,-54.27349
2022-11-07 03:54:00+00:00,217.0,8.35,222.0,9.91,12.17,47.59359,-54.27349
2022-11-07 04:04:00+00:00,217.0,8.16,219.0,8.81,12.17,47.59359,-54.27349
2022-11-07 04:14:00+00:00,219.0,7.36,227.0,9.58,12.17,47.59359,-54.27349
2022-11-07 04:24:00+00:00,213.0,7.73,217.0,8.87,12.17,47.59359,-54.27349
2022-11-07 04:34:00+00:00,222.0,7.68,217.0,9.42,12.17,47.59359,-54.27349
2022-11-07 04:44:00+00:00,226.0,7.66,229.0,9.42,12.17,47.59359,-54.27349
2022-11-07 04:54:00+00:00,241.0,7.3,235.0,9.36,12.17,47.59359,-54.27349
2022-11-07 05:04:00+00:00,243.0,8.41,240.0,9.51,12.17,47.59359,-54.27349
2022-11-07 05:14:00+00:00,251.0,8.13,251.0,9.07,12.17,47.59359,-54.27349
2022-11-07 05:24:00+00:00,246.0,7.44,252.0,8.64,12.17,47.59359,-54.27349
2022-11-07 05:34:00+00:00,238.0,6.55,249.0,7.99,12.17,47.59359,-54.27349
2022-11-07 05:44:00+00:00,240.0,5.61,242.0,7.57,12.17,47.59359,-54.27349
2022-11-07 05:54:00+00:00,239.0,6.55,237.0,8.68,12.17,47.59359,-54.27349
2022-11-07 06:04:00+00:00,234.0,5.12,230.0,6.57,12.17,47.59359,-54.27349
2022-11-07 06:14:01+00:00,239.0,6.25,242.0,8.16,12.17,47.59359,-54.27349
2022-11-07 06:24:01+00:00,234.0,6.46,243.0,9.15,12.17,47.59359,-54.27349
2022-11-07 06:34:01+00:00,235.0,7.6,238.0,9.06,12.17,47.59359,-54.27349
2022-11-07 06:44:01+00:00,237.0,8.48,239.0,9.96,12.17,47.59359,-54.27349
2022-11-07 06:54:01+00:00,236.0,8.12,235.0,9.69,12.17,47.59359,-54.27349
2022-11-07 07:04:01+00:00,239.0,8.96,240.0,10.84,12.17,47.59359,-54.27349
2022-11-07 07:14:01+00:00,237.0,8.08,238.0,9.69,12.17,47.59359,-54.27349
2022-11-07 07:24:01+00:00,233.0,8.77,233.0,10.27,12.17,47.59359,-54.27349
2022-11-07 07:34:01+00:00,231.0,8.6,234.0,9.84,12.17,47.59359,-54.27349
2022-11-07 07:44:01+00:00,234.0,8.44,231.0,10.03,12.17,47.59359,-54.27349
2022-11-07 07:54:01+00:00,244.0,8.23,246.0,10.49,12.17,47.59359,-54.27349
2022-11-07 08:04:01+00:00,238.0,8.6,241.0,9.57,12.17,47.59359,-54.27349
2022-11-07 08:14:01+00:00,239.0,7.06,244.0,8.31,12.17,47.59359,-54.27349
2022-11-07 08:24:01+00:00,241.0,8.71,247.0,11.29,12.17,47.59359,-54.27349
2022-11-07 08:34:01+00:00,240.0,7.84,234.0,9.88,12.17,47.59359,-54.27349
2022-11-07 08:44:01+00:00,246.0,8.05,247.0,9.38,12.17,47.59359,-54.27349
2022-11-07 08:54:01+00:00,228.0,7.39,231.0,8.51,12.17,47.59359,-54.27349
2022-11-07 09:04:01+00:00,226.0,7.13,226.0,8.63,12.17,47.59359,-54.27349
2022-11-07 09:14:00+00:00,216.0,7.49,223.0,8.16,12.17,47.59359,-54.27349
2022-11-07 09:24:00+00:00,214.0,8.08,213.0,9.03,12.17,47.59359,-54.27349
2022-11-07 09:34:00+00:00,216.0,8.24,218.0,8.9,12.17,47.59359,-54.27349
2022-11-07 09:44:00+00:00,228.0,8.07,226.0,9.06,12.17,47.59359,-54.27349
2022-11-07 09:54:00+00:00,215.0,7.45,218.0,8.37,12.17,47.59359,-54.27349
2022-11-07 10:04:00+00:00,224.0,6.91,227.0,7.75,12.17,47.59359,-54.27349
2022-11-07 10:14:00+00:00,218.0,6.93,216.0,7.67,12.17,47.59359,-54.27349
2022-11-07 10:24:00+00:00,219.0,7.61,216.0,8.68,12.17,47.59359,-54.27349
2022-11-07 10:34:00+00:00,218.0,7.95,219.0,8.81,12.17,47.59359,-54.27349
2022-11-07 10:44:00+00:00,224.0,8.71,223.0,9.88,12.17,47.59359,-54.27349
2022-11-07 10:54:00+00:00,225.0,9.05,230.0,10.54,12.17,47.59359,-54.27349
2022-11-07 11:04:00+00:00,229.0,10.57,229.0,12.09,12.17,47.59359,-54.27349
2022-11-07 11:14:00+00:00,211.0,8.52,205.0,9.46,12.17,47.59359,-54.27349
2022-11-07 11:24:00+00:00,222.0,7.26,220.0,8.4,12.17,47.59359,-54.27349
2022-11-07 11:34:00+00:00,227.0,7.6,224.0,9.03,12.17,47.59359,-54.27349
2022-11-07 11:44:00+00:00,229.0,9.13,231.0,10.52,12.17,47.59359,-54.27349
2022-11-07 11:54:00+00:00,230.0,8.5,231.0,10.0,12.17,47.59359,-54.27349
2022-11-07 12:04:00+00:00,227.0,7.64,228.0,8.77,12.17,47.59359,-54.27349
2022-11-07 12:14:01+00:00,224.0,8.09,219.0,9.25,12.17,47.59359,-54.27349
2022-11-07 12:24:01+00:00,230.0,8.14,231.0,9.26,12.17,47.59359,-54.27349
2022-11-07 12:34:01+00:00,226.0,7.73,223.0,10.05,12.17,47.59359,-54.27349
2022-11-07 12:44:01+00:00,231.0,7.94,232.0,8.91,12.17,47.59359,-54.27349
2022-11-07 12:54:01+00:00,231.0,8.14,235.0,9.22,12.17,47.59359,-54.27349
2022-11-07 13:04:01+00:00,237.0,7.37,233.0,8.53,12.17,47.59359,-54.27349
2022-11-07 13:14:01+00:00,236.0,7.33,236.0,8.12,12.41,47.59359,-54.27349
2022-11-07 13:24:01+00:00,233.0,8.5,231.0,10.23,12.41,47.59359,-54.27349
2022-11-07 13:34:01+00:00,229.0,8.27,232.0,9.74,12.41,47.59359,-54.27349
2022-11-07 13:44:01+00:00,228.0,8.01,229.0,9.8,12.41,47.59359,-54.27349
2022-11-07 13:54:01+00:00,227.0,7.41,230.0,8.76,12.41,47.59359,-54.27349
2022-11-07 14:04:01+00:00,220.0,6.02,223.0,7.53,12.41,47.59359,-54.27349
2022-11-07 14:14:00+00:00,229.0,7.68,232.0,9.52,12.57,47.59359,-54.27349
2022-11-07 14:24:00+00:00,244.0,7.55,245.0,8.49,12.57,47.59359,-54.27349
2022-11-07 14:34:00+00:00,246.0,8.13,250.0,9.13,12.57,47.59359,-54.27349
2022-11-07 14:44:00+00:00,251.0,8.3,251.0,8.89,12.57,47.59359,-54.27349
2022-11-07 14:54:00+00:00,251.0,8.47,250.0,9.2,12.57,47.59359,-54.27349
2022-11-07 15:04:00+00:00,246.0,7.45,247.0,8.77,12.57,47.59359,-54.27349
2022-11-07 15:14:00+00:00,238.0,6.8,239.0,7.83,13.6,47.59359,-54.27349
2022-11-07 15:24:00+00:00,234.0,6.74,237.0,7.75,13.6,47.59359,-54.27349
2022-11-07 15:34:00+00:00,236.0,7.28,240.0,8.8,13.6,47.59359,-54.27349
2022-11-07 15:44:00+00:00,236.0,6.88,238.0,8.04,13.6,47.59359,-54.27349
2022-11-07 15:54:00+00:00,232.0,7.13,230.0,7.97,13.6,47.59359,-54.27349
2022-11-07 16:04:00+00:00,229.0,6.73,232.0,8.07,13.6,47.59359,-54.27349
2022-11-07 16:14:01+00:00,223.0,6.84,230.0,7.86,14.08,47.59359,-54.27349
2022-11-07 16:24:01+00:00,219.0,7.6,217.0,9.38,14.08,47.59359,-54.27349
2022-11-07 16:34:01+00:00,225.0,7.9,215.0,9.49,14.08,47.59359,-54.27349
2022-11-07 16:44:01+00:00,231.0,6.9,227.0,8.04,14.08,47.59359,-54.27349
2022-11-07 16:54:01+00:00,233.0,8.51,235.0,9.76,14.08,47.59359,-54.27349
2022-11-07 17:04:01+00:00,235.0,7.75,235.0,8.99,14.08,47.59359,-54.27349
2022-11-07 17:14:01+00:00,241.0,6.9,246.0,7.87,12.97,47.59359,-54.27349
2022-11-07 17:24:01+00:00,245.0,8.23,247.0,9.03,12.97,47.59359,-54.27349
2022-11-07 17:34:01+00:00,232.0,5.69,240.0,6.79,12.97,47.59359,-54.27349
2022-11-07 17:44:01+00:00,231.0,6.9,226.0,7.95,12.97,47.59359,-54.27349
2022-11-07 17:54:01+00:00,231.0,5.81,230.0,6.83,12.97,47.59359,-54.27349
2022-11-07 18:04:01+00:00,231.0,7.0,232.0,8.22,12.97,47.59359,-54.27349
2022-11-07 18:14:01+00:00,226.0,9.31,226.0,11.33,12.73,47.59359,-54.27349
2022-11-07 18:24:01+00:00,212.0,7.12,208.0,8.27,12.73,47.59359,-54.27349
2022-11-07 18:34:01+00:00,212.0,7.43,210.0,8.53,12.73,47.59359,-54.27349
2022-11-07 18:44:01+00:00,210.0,8.4,214.0,9.91,12.73,47.59359,-54.27349
2022-11-07 18:54:01+00:00,219.0,7.81,225.0,9.8,12.73,47.59359,-54.27349
2022-11-07 19:04:01+00:00,207.0,8.66,203.0,9.33,12.73,47.59359,-54.27349
2022-11-07 19:14:01+00:00,221.0,9.51,228.0,11.34,12.65,47.59359,-54.27349
2022-11-07 19:24:01+00:00,220.0,10.6,226.0,12.09,12.65,47.59359,-54.27349
2022-11-07 19:34:01+00:00,220.0,9.56,226.0,11.97,12.65,47.59359,-54.27349
2022-11-07 19:44:01+00:00,229.0,9.32,234.0,11.04,12.65,47.59359,-54.27349
2022-11-07 19:54:01+00:00,226.0,9.89,219.0,11.92,12.65,47.59359,-54.27349
2022-11-07 20:04:01+00:00,223.0,9.91,226.0,11.78,12.65,47.59359,-54.27349
2022-11-07 20:14:00+00:00,217.0,8.84,223.0,11.18,12.49,47.59359,-54.27349
2022-11-07 20:24:00+00:00,227.0,10.17,214.0,13.9,12.49,47.59359,-54.27349
2022-11-07 20:34:00+00:00,215.0,9.56,223.0,11.36,12.49,47.59359,-54.27349
2022-11-07 20:44:00+00:00,225.0,9.78,229.0,12.51,12.49,47.59359,-54.27349
2022-11-07 20:54:00+00:00,223.0,10.17,223.0,13.48,12.49,47.59359,-54.27349
2022-11-07 21:04:00+00:00,222.0,10.23,222.0,12.72,12.49,47.59359,-54.27349
2022-11-07 21:14:00+00:00,224.0,11.68,221.0,13.76,12.49,47.59359,-54.27349
2022-11-07 21:24:00+00:00,228.0,12.25,228.0,14.55,12.49,47.59359,-54.27349
2022-11-07 21:34:00+00:00,227.0,11.54,235.0,14.36,12.49,47.59359,-54.27349
2022-11-07 21:44:00+00:00,227.0,11.91,230.0,13.72,12.49,47.59359,-54.27349
2022-11-07 21:54:00+00:00,225.0,11.82,233.0,13.53,12.49,47.59359,-54.27349
2022-11-07 22:04:00+00:00,225.0,10.76,225.0,13.21,12.49,47.59359,-54.27349
2022-11-07 22:14:00+00:00,216.0,11.55,221.0,13.0,12.41,47.59359,-54.27349
2022-11-07 22:24:00+00:00,216.0,11.71,216.0,12.78,12.41,47.59359,-54.27349
2022-11-07 22:34:00+00:00,220.0,10.57,219.0,11.85,12.41,47.59359,-54.27349
2022-11-07 22:44:00+00:00,225.0,10.66,221.0,12.46,12.41,47.59359,-54.27349
2022-11-07 22:54:00+00:00,226.0,10.31,241.0,12.82,12.41,47.59359,-54.27349
2022-11-07 23:04:00+00:00,230.0,11.1,224.0,12.38,12.41,47.59359,-54.27349
2022-11-07 23:14:00+00:00,232.0,10.02,237.0,11.8,12.41,47.59359,-54.27349
2022-11-07 23:24:00+00:00,231.0,10.61,233.0,11.8,12.41,47.59359,-54.27349
2022-11-07 23:34:00+00:00,230.0,10.07,232.0,11.05,12.41,47.59359,-54.27349
2022-11-07 23:44:00+00:00,230.0,10.04,234.0,12.58,12.41,47.59359,-54.27349
2022-11-07 23:54:00+00:00,237.0,9.49,236.0,10.83,12.41,47.59359,-54.27349
